RH
62 82 81 88 95 95 93 70 91 79 71 59 46 57 72 83 90 94 97 79 63 54 45 40 48 51 67 57 54 55 78 84 68 45 43 66 71 76 84 91 95 96 100 100 99
83 82 75 85 86 91 71 66 69 72 46 53 52 52 76 90 94 88 71 78 62 58 58 50 75 75 65 48 48 53 61 54 53 56 57 69 69 78 82 91 99 99 100 100 99
80 82 75 59 70 79 49 53 63 38 42 52 46 67 81 85 89 69 72 75 75 80 53 76 78 76 54 47 45 45 47 49 56 41 66 68 74 77 86 88 94 98 99 100 99
39 29 30 18 14 24 21 37 48 26 39 48 48 96 88 96 82 66 67 58 81 93 57 89 81 69 54 55 41 48 58 50 65 69 64 66 76 85 84 93 93 99 100 100 100
25 12 9 11 13 10 14 23 44 27 26 44 54 94 95 99 78 70 69 67 67 88 57 90 83 67 57 46 42 52 60 63 67 67 69 72 80 80 95 95 100 100 100 100 100
13 14 15 17 14 10 8 21 41 27 41 47 72 96 97 97 72 66 71 64 63 70 50 76 72 64 50 45 45 53 64 71 68 69 71 73 82 80 92 96 100 100 100 100 100
18 26 27 16 13 6 13 36 34 27 40 44 71 98 93 78 69 69 72 63 82 70 48 63 69 64 50 57 56 64 74 69 69 69 70 68 80 86 83 96 98 100 100 100 99
21 20 12 8 8 7 32 34 28 27 33 45 80 95 85 69 74 71 67 69 84 74 59 36 72 74 45 51 54 68 69 71 69 69 74 68 66 82 89 92 92 99 100 100 100
18 11 7 8 9 16 40 56 57 52 52 70 89 95 78 73 71 64 66 70 85 68 48 71 69 62 49 62 65 65 80 76 82 70 75 76 71 81 90 89 89 93 99 99 100
16 12 7 9 19 55 76 81 86 82 86 88 86 94 71 64 61 67 72 81 75 68 60 69 62 63 65 61 80 82 73 68 77 81 77 91 90 88 90 86 86 89 95 99 100
16 14 9 12 52 80 79 85 90 95 93 81 72 68 62 60 56 66 82 78 72 67 81 69 80 85 69 61 54 58 64 62 58 72 84 89 79 88 89 83 83 86 90 96 99
19 20 15 26 62 76 75 79 87 96 90 68 73 81 78 72 68 68 80 77 75 85 74 74 88 68 57 56 54 55 59 63 59 70 78 88 88 85 86 84 82 85 87 93 98
12 24 20 30 57 72 76 87 90 90 86 69 62 61 76 72 65 66 79 74 77 84 87 85 64 63 59 61 65 64 67 65 53 76 70 76 88 88 83 79 82 82 83 88 93
4 20 31 22 44 62 74 85 82 91 95 67 78 73 72 65 69 56 69 70 74 88 79 84 62 66 70 66 60 73 53 52 64 81 94 70 88 83 87 91 84 82 83 82 86
4 12 34 41 34 67 65 74 85 90 59 66 71 69 72 66 59 58 64 76 67 70 82 88 69 71 73 68 54 59 42 52 67 70 66 80 87 75 87 94 86 82 81 83 82
4 4 31 46 48 58 54 80 89 84 75 72 66 75 80 73 64 74 74 70 65 65 68 71 53 54 54 49 52 47 60 67 70 71 88 73 80 70 91 74 65 67 79 79 81
4 4 21 39 49 43 66 88 79 89 40 68 70 75 73 72 78 76 93 96 87 96 94 67 65 52 40 55 49 52 63 95 97 96 82 70 88 56 62 57 49 58 71 81 81
4 6 22 38 56 56 83 85 89 50 63 52 57 56 80 66 73 77 86 92 86 73 98 94 91 62 50 45 50 55 76 81 90 87 86 72 87 65 53 52 50 51 60 80 80
4 8 27 59 73 69 93 92 67 60 59 62 56 65 64 61 62 72 87 89 76 82 97 100 94 58 46 40 39 62 71 67 68 54 68 72 65 50 50 51 65 76 81 83 79
4 17 48 72 74 78 89 77 70 54 55 56 66 58 67 72 78 95 99 78 76 78 78 97 99 71 58 46 41 45 51 85 93 95 91 74 73 60 58 57 84 88 88 81 78
5 39 70 81 76 88 97 83 59 54 47 60 65 69 67 67 83 95 81 76 81 88 84 99 100 88 86 74 74 65 72 65 89 92 79 69 56 58 48 52 78 84 80 77 77
13 52 67 76 83 93 92 67 54 52 53 54 55 61 66 62 77 81 80 74 82 85 98 93 100 98 62 72 85 97 62 71 90 80 75 63 51 49 47 59 71 78 71 74 74
10 34 59 78 91 86 69 50 48 56 52 52 57 56 54 63 76 83 87 81 83 91 99 99 98 96 75 91 98 99 100 100 99 100 92 84 64 69 71 79 72 67 68 67 68
21 39 45 84 80 71 62 50 44 41 55 53 57 51 58 64 66 80 85 89 89 91 94 99 98 97 94 79 88 85 92 97 98 97 97 93 88 77 87 80 67 65 64 64 65
41 40 48 31 34 32 30 38 50 47 50 50 50 53 56 78 78 83 65 54 86 83 88 91 100 96 90 89 92 91 85 81 97 97 97 78 83 93 83 83 73 68 70 70 69
30 35 34 32 32 31 29 26 30 37 44 44 54 50 44 51 60 77 69 76 66 85 79 94 95 96 88 87 87 83 77 87 85 87 98 98 93 88 79 77 77 78 77 79 78
31 42 64 37 38 34 32 35 44 44 38 41 43 44 46 48 56 53 54 55 72 82 96 99 97 100 99 77 89 99 83 72 66 83 81 94 79 91 90 85 80 81 77 79 70
Wind_Speed
16 15 15 13 12 11 10 6 8 8 8 6 6 9 9 8 8 10 15 8 10 7 17 11 14 18 20 15 19 10 2 3 4 4 4 6 4 3 7 14 6 4 10 20 24
17 16 15 14 13 12 10 7 6 6 5 7 7 7 6 7 6 12 14 9 11 11 13 15 19 21 17 14 14 9 6 8 5 4 2 3 5 8 6 6 6 10 16 22 23
16 17 16 15 13 11 10 7 6 4 3 4 6 7 4 4 3 5 1 9 14 12 13 17 17 18 8 11 10 8 9 5 4 12 1 6 5 4 15 1 7 13 23 23 24
17 18 16 16 13 11 9 7 7 3 4 4 5 4 1 3 2 3 5 3 15 15 15 18 19 9 5 5 8 4 3 3 4 2 6 4 11 6 1 5 10 18 22 24 24
17 18 17 17 14 12 9 6 7 3 6 6 2 2 2 4 6 3 4 4 7 17 22 21 21 14 6 8 9 4 3 4 8 8 11 13 4 7 6 10 14 21 22 24 24
17 18 18 17 14 12 9 7 5 3 6 5 2 1 3 3 6 3 6 6 6 18 21 25 16 18 11 4 6 7 7 6 6 6 5 6 3 1 7 13 16 19 22 23 23
18 18 19 18 14 11 7 6 3 3 5 5 5 2 7 14 9 7 4 6 3 18 24 29 15 7 5 5 10 18 6 3 3 6 2 9 2 5 12 18 16 17 19 22 23
18 19 18 17 12 6 4 4 3 0 3 5 5 4 7 3 11 12 8 7 3 10 20 23 17 6 3 18 7 5 4 3 4 7 2 1 5 3 16 20 15 17 20 21 22
20 19 18 16 8 3 4 5 5 2 4 5 5 3 7 3 5 5 8 6 5 10 16 11 5 6 9 6 4 2 4 4 4 9 5 3 5 6 19 18 16 17 19 21 23
20 20 18 13 6 6 8 8 8 7 7 4 3 3 4 1 3 2 5 6 7 10 7 6 6 3 3 4 9 5 4 4 7 8 3 4 10 4 17 15 15 17 20 23 25
18 18 16 10 7 6 2 1 1 1 6 7 3 3 2 5 4 7 4 12 6 8 5 5 3 8 7 6 6 7 5 7 3 8 6 15 9 10 16 16 16 20 24 26 25
17 16 13 8 4 4 4 4 5 4 8 13 19 18 8 6 3 5 10 9 6 5 4 1 9 6 7 6 6 7 7 6 2 5 7 5 15 6 17 18 26 27 28 32 28
15 13 10 6 3 1 3 5 4 7 4 9 8 19 10 8 5 8 16 6 3 4 7 7 3 7 5 4 7 7 7 4 3 4 2 4 6 5 7 8 22 26 33 34 39
16 12 10 8 2 1 1 1 1 4 3 4 3 2 14 4 5 13 20 9 4 11 3 6 6 8 13 11 10 14 7 8 6 6 6 8 7 6 6 9 12 26 36 41 39
17 12 10 8 4 2 1 2 2 1 4 5 3 4 9 8 5 5 16 18 6 7 6 7 5 11 12 20 8 11 6 11 7 12 4 4 3 5 7 9 16 28 40 39 43
18 14 9 8 7 4 2 2 1 1 6 4 5 5 4 5 3 2 7 8 3 3 4 8 8 7 14 11 15 4 4 3 3 4 8 13 9 8 8 10 8 18 33 42 44
19 14 9 8 5 4 3 2 2 3 1 4 4 5 6 5 5 5 5 5 6 4 7 2 11 6 6 10 7 11 8 6 6 7 11 13 8 22 7 10 14 16 34 38 43
18 13 10 7 5 4 4 1 4 2 2 2 3 2 6 6 6 7 4 5 5 4 2 6 6 16 7 19 14 16 17 7 7 6 5 7 11 8 6 6 8 13 25 34 40
17 13 9 2 3 5 4 2 4 2 1 3 5 3 3 2 5 2 4 4 4 12 8 4 7 4 11 21 18 6 15 22 11 4 2 6 6 5 1 5 3 17 29 33 39
16 12 7 4 2 4 1 4 4 1 2 2 2 2 2 4 2 1 3 2 2 2 8 2 6 8 7 8 16 17 6 8 8 7 12 7 6 6 5 10 8 13 23 29 36
14 6 2 4 3 3 3 5 4 2 2 3 2 3 3 2 3 3 4 3 1 2 1 2 3 3 3 4 14 12 15 12 5 6 10 11 10 9 13 14 18 15 26 33 37
7 2 2 4 1 3 2 4 4 3 3 3 3 5 6 4 3 4 6 4 2 2 2 4 2 4 12 9 7 6 18 23 8 13 12 16 16 1 1 4 15 19 24 29 36
10 5 4 5 2 2 4 5 4 3 3 2 2 2 1 3 2 4 3 4 4 2 2 2 3 2 7 2 3 2 2 3 8 2 15 11 17 6 3 8 16 27 29 33 38
4 3 2 6 3 3 3 4 3 6 3 4 3 2 3 4 5 4 2 2 4 3 6 5 3 5 5 6 0 8 6 6 8 1 4 7 14 4 3 10 15 25 30 35 40
2 2 2 3 2 1 2 3 5 6 4 4 2 1 1 2 2 3 2 4 1 4 1 2 4 4 8 8 5 11 15 12 12 6 8 9 11 5 10 13 20 29 32 36 39
6 4 3 4 8 1 2 2 2 4 2 2 2 2 2 4 4 3 1 2 5 2 3 2 3 2 8 8 10 14 11 12 14 15 11 9 17 6 11 19 21 30 33 33 36
6 4 3 5 4 1 2 2 1 3 1 1 3 3 4 3 4 9 11 12 7 2 3 5 4 2 5 3 7 6 9 16 14 8 11 10 9 4 7 15 24 30 42 43 45
Wind_Direction
3 359 353 348 344 336 334 296 300 292 281 282 285 272 268 270 269 238 236 240 208 158 171 184 184 180 192 201 212 233 39 243 274 342 13 134 109 64 100 122 99 111 144 157 166
356 353 350 344 340 337 332 331 298 298 268 245 287 290 276 276 281 262 260 233 198 200 188 190 180 174 180 189 182 159 206 204 190 219 20 77 100 135 140 115 80 110 138 153 163
353 350 345 345 340 336 330 314 301 280 252 233 268 309 272 271 320 327 348 245 200 210 188 188 178 170 174 176 179 192 218 170 192 243 237 145 112 113 137 118 176 167 154 160 166
350 348 344 343 344 334 325 313 300 279 222 229 290 350 243 235 236 55 10 344 204 200 198 182 172 181 168 175 190 128 27 137 138 130 124 117 135 97 49 130 162 166 163 166 169
349 350 354 354 347 338 328 315 293 275 220 233 294 329 200 242 247 275 329 339 210 195 194 187 180 180 182 184 158 114 167 109 124 146 138 141 78 144 120 142 152 163 168 172 174
358 356 354 352 345 337 332 326 301 268 204 199 206 258 207 260 186 205 306 318 254 202 199 193 192 188 188 168 151 153 120 109 129 148 143 120 125 37 174 162 163 170 173 176 180
1 356 351 352 348 347 352 349 340 245 205 205 184 182 255 239 202 234 330 304 306 208 199 201 181 192 198 111 133 130 97 98 186 182 152 133 159 218 181 173 172 176 180 183 185
0 355 349 349 349 354 18 18 19 179 199 180 168 188 257 327 222 249 263 287 273 199 201 208 215 240 205 123 99 90 79 148 162 170 149 119 260 109 173 173 177 184 188 191 192
1 356 356 354 358 19 58 66 70 79 140 143 143 204 272 303 280 278 235 242 256 184 197 179 218 198 143 113 99 151 165 208 315 205 135 188 268 149 181 183 181 190 193 196 200
4 2 359 4 53 77 94 83 81 90 115 132 206 241 266 293 296 263 219 194 145 171 191 207 198 149 103 174 194 169 200 200 196 198 168 165 259 160 191 194 196 194 200 201 208
4 5 7 23 74 88 108 103 342 314 241 222 262 230 177 308 305 211 195 173 150 154 167 198 169 204 190 193 162 173 191 209 231 170 144 201 230 197 188 204 202 200 205 209 210
359 5 10 28 77 64 57 82 58 324 303 255 240 246 264 263 284 223 183 181 176 182 152 137 227 194 202 207 193 184 197 218 250 176 178 170 244 154 181 215 207 199 206 211 208
350 356 1 1 15 359 50 88 37 342 276 287 244 232 221 231 236 225 192 196 172 170 197 200 192 165 182 215 217 232 205 169 218 119 248 118 277 236 218 212 210 219 222 218 214
341 340 342 342 305 157 30 169 9 333 356 252 210 209 197 229 269 226 204 180 189 200 196 240 230 191 209 223 190 234 189 210 167 142 223 164 265 243 202 214 211 214 216 220 218
336 327 327 336 302 241 258 232 247 321 339 156 176 163 192 191 310 238 204 203 197 186 158 210 212 205 223 223 187 237 199 221 176 200 154 175 258 234 145 212 225 219 217 214 218
331 323 307 309 298 282 284 171 174 56 259 192 150 172 134 221 242 194 186 207 211 240 220 227 253 205 226 224 217 166 103 73 126 172 232 201 198 216 185 202 230 215 210 209 211
327 318 296 289 294 278 201 177 62 188 37 184 202 174 200 204 216 197 190 188 198 190 231 204 233 247 191 227 213 198 190 228 207 206 247 168 194 245 219 213 211 207 203 194 203
327 317 298 282 269 240 177 88 218 205 258 7 41 248 192 194 234 206 196 237 240 226 241 211 259 215 199 216 213 201 199 214 229 214 213 174 224 239 211 223 251 252 201 183 191
327 316 296 276 242 211 189 176 234 236 21 11 325 245 275 261 214 135 226 219 231 199 225 242 238 253 209 216 202 204 215 226 266 242 197 213 279 299 305 272 123 143 159 171 180
329 316 290 226 261 195 165 248 245 176 93 44 213 337 305 341 8 26 207 243 230 276 221 267 268 258 271 229 225 216 191 207 224 220 238 237 244 227 230 223 161 158 161 163 175
329 317 245 209 211 210 233 242 285 161 170 197 225 279 240 272 203 213 230 278 228 148 47 88 238 284 15 249 222 213 228 232 237 202 233 251 247 195 203 198 187 172 162 161 168
341 329 216 210 222 228 230 236 303 232 207 243 214 223 224 221 245 234 228 228 72 123 231 194 253 242 258 222 186 325 237 214 218 210 228 240 247 7 3 144 145 145 149 155 166
337 277 238 210 233 235 292 290 286 249 217 211 237 171 50 212 294 207 227 174 159 139 239 104 248 307 322 289 52 208 7 291 287 252 226 220 252 341 118 114 139 142 149 153 165
336 341 260 215 259 285 287 269 288 339 273 235 238 230 221 236 221 266 248 184 164 198 193 177 250 228 254 250 1 285 290 283 225 233 321 288 286 310 224 155 147 149 151 157 167
298 205 190 279 239 348 307 302 279 294 261 238 283 255 207 266 291 250 315 345 223 172 148 208 244 234 260 276 283 279 285 278 263 272 229 266 260 250 232 194 168 153 153 156 163
333 348 311 279 279 351 217 243 262 310 316 265 251 359 211 233 231 258 32 206 236 290 235 189 260 279 272 262 261 267 271 259 245 249 257 261 271 192 156 150 160 159 156 159 163
360 317 309 291 349 293 304 300 299 354 269 26 74 347 287 282 307 278 264 260 244 182 233 196 186 189 250 267 306 292 228 241 243 213 219 229 237 141 159 170 183 176 167 165 169